• In Österreich
  • Länderverzeichnis
  • Für 7 Tage
  • Wassertemperatur
  • Satellitenkarten
  • Wetterkarte
  • News
  • Widgets
  • user-avatar
    Anmelden

    Stündliche Wetter Julara

    Heute, 25 Februar, Sonntag

    Zeit Temperatur Niederschläge Wind Luftdruck Luftfeuchtigkeit
    00:00 +29°C° 0 mm 9 m/S 716 mmHg 29%
    01:00 +28°C° 0 mm 9 m/S 716 mmHg 32%
    02:00 +28°C° 0 mm 9 m/S 716 mmHg 35%
    03:00 +27°C° 0 mm 9 m/S 716 mmHg 40%
    04:00 +26°C° 0 mm 8 m/S 716 mmHg 44%
    05:00 +24°C° 0 mm 8 m/S 716 mmHg 48%
    06:00 +23°C° 0 mm 7 m/S 716 mmHg 51%
    07:00 +24°C° 0 mm 7 m/S 717 mmHg 49%
    08:00 +26°C° 0 mm 7 m/S 717 mmHg 47%
    09:00 +27°C° 0 mm 7 m/S 717 mmHg 44%
    10:00 +28°C° 0 mm 6 m/S 717 mmHg 39%
    11:00 +30°C° 0 mm 6 m/S 717 mmHg 34%
    12:00 +33°C° 0 mm 5 m/S 716 mmHg 29%
    13:00 +33°C° 0 mm 5 m/S 716 mmHg 27%
    14:00 +34°C° 0 mm 4 m/S 715 mmHg 24%
    15:00 +35°C° 0 mm 3 m/S 715 mmHg 22%
    16:00 +35°C° 0 mm 3 m/S 715 mmHg 21%
    17:00 +35°C° 0 mm 3 m/S 715 mmHg 21%
    18:00 +35°C° 0 mm 3 m/S 715 mmHg 20%
    19:00 +34°C° 0 mm 3 m/S 715 mmHg 21%
    20:00 +33°C° 0 mm 4 m/S 715 mmHg 23%
    21:00 +32°C° 0 mm 5 m/S 716 mmHg 24%
    22:00 +30°C° 0 mm 5 m/S 716 mmHg 22%
    23:00 +29°C° 0 mm 6 m/S 716 mmHg 21%

    Morgen, 26 Februar, Montag

    Zeit Temperatur Niederschläge Wind Luftdruck Luftfeuchtigkeit
    00:00 +29°C° 0 mm 6 m/S 716 mmHg 20%
    01:00 +28°C° 0 mm 6 m/S 716 mmHg 20%
    02:00 +27°C° 0 mm 6 m/S 715 mmHg 20%
    03:00 +26°C° 0 mm 6 m/S 715 mmHg 21%
    04:00 +26°C° 0 mm 5 m/S 715 mmHg 22%
    05:00 +25°C° 0 mm 5 m/S 715 mmHg 24%
    06:00 +23°C° 0 mm 4 m/S 715 mmHg 25%
    07:00 +26°C° 0 mm 5 m/S 716 mmHg 24%
    08:00 +27°C° 0 mm 6 m/S 716 mmHg 22%
    09:00 +29°C° 0 mm 6 m/S 717 mmHg 20%
    10:00 +30°C° 0 mm 5 m/S 716 mmHg 19%
    11:00 +33°C° 0 mm 4 m/S 716 mmHg 18%
    12:00 +34°C° 0 mm 3 m/S 716 mmHg 17%
    13:00 +35°C° 0 mm 2 m/S 715 mmHg 17%
    14:00 +35°C° 0 mm 1 m/S 714 mmHg 16%
    15:00 +34°C° 0 mm 0 m/S 714 mmHg 15%
    16:00 +36°C° 0 mm 1 m/S 714 mmHg 15%
    17:00 +36°C° 0 mm 1 m/S 714 mmHg 15%
    18:00 +36°C° 0 mm 1 m/S 714 mmHg 14%
    19:00 +36°C° 0 mm 2 m/S 714 mmHg 15%
    20:00 +35°C° 0 mm 3 m/S 714 mmHg 16%
    21:00 +34°C° 0 mm 3 m/S 715 mmHg 17%
    22:00 +33°C° 0 mm 4 m/S 715 mmHg 17%
    23:00 +32°C° 0 mm 4 m/S 715 mmHg 17%

    übermorgen, 27 Februar, Dienstag

    Zeit Temperatur Niederschläge Wind Luftdruck Luftfeuchtigkeit
    00:00 +30°C° 0 mm 5 m/S 715 mmHg 17%
    01:00 +30°C° 0 mm 5 m/S 714 mmHg 17%
    02:00 +29°C° 0 mm 5 m/S 714 mmHg 17%
    03:00 +28°C° 0 mm 5 m/S 714 mmHg 18%
    04:00 +28°C° 0 mm 4 m/S 714 mmHg 19%
    05:00 +27°C° 0 mm 4 m/S 714 mmHg 20%
    06:00 +27°C° 0 mm 4 m/S 714 mmHg 22%
    07:00 +28°C° 0 mm 4 m/S 715 mmHg 20%
    08:00 +30°C° 0 mm 5 m/S 715 mmHg 18%
    09:00 +33°C° 0 mm 5 m/S 716 mmHg 16%
    10:00 +35°C° 0 mm 4 m/S 715 mmHg 15%
    11:00 +36°C° 0 mm 3 m/S 715 mmHg 14%
    12:00 +38°C° 0 mm 2 m/S 715 mmHg 13%
    13:00 +39°C° 0 mm 2 m/S 715 mmHg 13%
    14:00 +40°C° 0 mm 3 m/S 714 mmHg 13%
    15:00 +42°C° 0 mm 3 m/S 713 mmHg 13%
    16:00 +42°C° 0 mm 3 m/S 713 mmHg 13%
    17:00 +42°C° 0 mm 3 m/S 713 mmHg 13%
    18:00 +42°C° 0 mm 4 m/S 713 mmHg 13%
    19:00 +39°C° 0 mm 3 m/S 714 mmHg 14%
    20:00 +38°C° 0 mm 3 m/S 714 mmHg 16%
    21:00 +37°C° 0 mm 3 m/S 714 mmHg 17%
    22:00 +36°C° 0 mm 3 m/S 714 mmHg 18%
    23:00 +36°C° 0 mm 3 m/S 714 mmHg 19%

    28 Februar, Mittwoch

    Zeit Temperatur Niederschläge Wind Luftdruck Luftfeuchtigkeit
    00:00 +35°C° 0 mm 4 m/S 714 mmHg 20%
    01:00 +34°C° 0 mm 5 m/S 714 mmHg 23%
    02:00 +33°C° 0 mm 6 m/S 714 mmHg 26%
    03:00 +32°C° 0 mm 7 m/S 714 mmHg 29%
    04:00 +30°C° 0 mm 7 m/S 715 mmHg 31%
    05:00 +29°C° 0 mm 7 m/S 715 mmHg 33%
    06:00 +28°C° 0 mm 7 m/S 715 mmHg 35%
    07:00 +29°C° 0 mm 7 m/S 716 mmHg 32%
    08:00 +30°C° 0 mm 7 m/S 717 mmHg 30%
    09:00 +33°C° 0 mm 8 m/S 717 mmHg 28%
    10:00 +35°C° 0 mm 7 m/S 717 mmHg 23%
    11:00 +38°C° 0 mm 7 m/S 717 mmHg 18%
    12:00 +40°C° 0 mm 6 m/S 717 mmHg 13%
    13:00 +41°C° 0 mm 6 m/S 716 mmHg 13%
    14:00 +41°C° 0 mm 7 m/S 715 mmHg 13%
    15:00 +43°C° 0 mm 7 m/S 715 mmHg 13%
    16:00 +41°C° 0 mm 7 m/S 715 mmHg 13%
    17:00 +41°C° 0 mm 7 m/S 715 mmHg 14%
    18:00 +40°C° 0 mm 8 m/S 715 mmHg 15%
    19:00 +39°C° 0 mm 7 m/S 716 mmHg 16%
    20:00 +38°C° 0 mm 7 m/S 716 mmHg 18%
    21:00 +35°C° 0 mm 7 m/S 717 mmHg 19%
    22:00 +34°C° 0 mm 7 m/S 717 mmHg 20%
    23:00 +33°C° 0 mm 7 m/S 717 mmHg 21%

    1 März, Donnerstag

    Zeit Temperatur Niederschläge Wind Luftdruck Luftfeuchtigkeit
    00:00 +33°C° 0 mm 7 m/S 717 mmHg 22%
    01:00 +32°C° 0 mm 7 m/S 716 mmHg 22%
    02:00 +30°C° 0 mm 7 m/S 716 mmHg 23%
    03:00 +29°C° 0 mm 7 m/S 716 mmHg 24%
    04:00 +29°C° 0 mm 7 m/S 716 mmHg 24%
    05:00 +28°C° 0 mm 6 m/S 716 mmHg 25%
    06:00 +27°C° 0 mm 6 m/S 716 mmHg 26%
    07:00 +29°C° 0 mm 7 m/S 717 mmHg 24%
    08:00 +31°C° 0 mm 8 m/S 717 mmHg 22%
    09:00 +33°C° 0 mm 9 m/S 717 mmHg 20%
    10:00 +35°C° 0 mm 9 m/S 717 mmHg 18%
    11:00 +38°C° 0 mm 8 m/S 716 mmHg 16%
    12:00 +40°C° 0 mm 8 m/S 716 mmHg 14%
    13:00 +40°C° 0 mm 7 m/S 715 mmHg 13%
    14:00 +41°C° 0 mm 6 m/S 715 mmHg 12%
    15:00 +42°C° 0 mm 6 m/S 714 mmHg 11%
    16:00 +42°C° 0 mm 5 m/S 714 mmHg 11%
    17:00 +41°C° 0 mm 5 m/S 714 mmHg 11%
    18:00 +41°C° 0 mm 5 m/S 714 mmHg 11%
    19:00 +39°C° 0 mm 5 m/S 715 mmHg 13%
    20:00 +37°C° 0 mm 4 m/S 715 mmHg 15%
    21:00 +35°C° 0 mm 4 m/S 715 mmHg 17%
    22:00 +35°C° 0 mm 5 m/S 715 mmHg 18%
    23:00 +34°C° 0 mm 6 m/S 715 mmHg 20%

    2 März, Freitag

    Zeit Temperatur Niederschläge Wind Luftdruck Luftfeuchtigkeit
    00:00 +33°C° 0 mm 6 m/S 715 mmHg 21%
    01:00 +33°C° 0 mm 7 m/S 715 mmHg 22%
    02:00 +32°C° 0 mm 7 m/S 715 mmHg 22%
    03:00 +31°C° 0 mm 8 m/S 715 mmHg 23%
    04:00 +31°C° 0 mm 8 m/S 715 mmHg 23%
    05:00 +29°C° 0 mm 8 m/S 715 mmHg 23%
    06:00 +28°C° 0 mm 7 m/S 715 mmHg 23%
    07:00 +31°C° 0 mm 8 m/S 716 mmHg 22%
    08:00 +32°C° 0 mm 8 m/S 716 mmHg 21%
    09:00 +34°C° 0 mm 9 m/S 716 mmHg 20%
    10:00 +35°C° 0 mm 8 m/S 716 mmHg 19%
    11:00 +38°C° 0 mm 8 m/S 715 mmHg 19%
    12:00 +40°C° 0 mm 7 m/S 715 mmHg 19%
    13:00 +41°C° 0 mm 7 m/S 714 mmHg 18%
    14:00 +41°C° 0 mm 6 m/S 714 mmHg 17%
    15:00 +42°C° 0 mm 5 m/S 713 mmHg 17%
    16:00 +41°C° 0 mm 5 m/S 713 mmHg 17%
    17:00 +41°C° 0 mm 5 m/S 713 mmHg 18%
    18:00 +40°C° 0 mm 5 m/S 713 mmHg 19%
    19:00 +39°C° 0 mm 5 m/S 713 mmHg 23%
    20:00 +37°C° 0 mm 5 m/S 714 mmHg 27%
    21:00 +35°C° 0 mm 5 m/S 714 mmHg 31%
    22:00 +35°C° 0 mm 4 m/S 714 mmHg 33%
    23:00 +34°C° 0 mm 4 m/S 714 mmHg 36%
    Mehr zeigen